YAOGAN-43 01F (60463 NORAD) Tracking and Keplerian Element Data

This shows tracking and keplerian element data for the satellite.

Feedback or suggestion? Click here.




ElementValue
Catalog60463
NameYAOGAN-43 01F
Epoch Orbit871
Epoch Day286.79713547
Epoch Year2024
RAAN54.0665
Inclination34.9989
Eccentricity0.0007515
Argument of Perigee77.9613
Mean Anonmoly282.1944
Mean Motion15.22493786
Decay Rate0.00026838
L11 60463U 24148F 24286.79713547 .00026838 00000+0 11276-2 0 9998
L22 60463 34.9989 54.0665 0007515 77.9613 282.1944 15.22493786 8713



Live tracking and technical data element details for YAOGAN-43 01F (NORAD 60463). YAOGAN-43 01F can be tracked NOW for your location showing map with azimuth and elevation plus other details from your city location.







IsCatalogInMostPopularTable: catalog: 60463, numindb: 5
Update: records affected: 1



GetName: 60463 YAOGAN-43 01F

Hit Count: updated at: Fri, 06 Dec 2024 10:32:31 GMT